Regional Weather Roundup
Issued by NWS

Home | Current Version | Previous Version | Text Only | Print | Product List | Glossary On
Versions: 1 2 3 4 5 6 7 8 9 10 11 12 13 14 15 16 17 18 19 20 21 22 23 24 25 26 27 28 29 30 31 32 33 34 35 36 37 38 39 40 41 42 43 44 45 46 47 48 49 50
000
ASCA44 KEWX 251620
RWRMX

LATIN AMERICA AND CARIBBEAN REGIONAL WEATHER ROUNDUP
NATIONAL WEATHER SERVICE AUSTIN/SAN ANTONIO TX
1100 AM CDT SAT OCT 25 2014

NOTE: "FAIR" INDICATED FEW OR NO CLOUDS BELOW 12,000 FEET WITH NO
SIGNIFICANT WEATHER AND/OR OBSTRUCTIONS TO VISIBILITY.

BAJA CALIFORNIA

CITY           SKY/WX    TMP DP  RH WIND       PRES   REMARKS
LORETO         SUNNY     88  64  45 CALM      29.97R
LA PAZ         SUNNY     81  61  50 S7        30.02
MEXICALI       PTSUNNY   82  46  28 W3        29.97
S.J. DEL CABO  SUNNY     82  70  65 CALM      30.01R
TIJUANA        PTSUNNY   73  39  29 CALM      30.08R

NORTHWESTERN MEXICO

CITY           SKY/WX    TMP DP  RH WIND       PRES   REMARKS
CULIACAN       SUNNY     84  75  74 CALM      29.97  HX  92
DURANGO        SUNNY     63  48  59 CALM      30.44R
GUAYMAS        SUNNY     84  72  65 CALM      29.94
HERMOSILLO     SUNNY     81  61  50 CALM      30.03
CD. JUAREZ     SUNNY     66  52  59 CALM      30.21
LOS MOCHIS     SUNNY     84  72  65 NW10      29.98R
OBREGON        SUNNY     82  70  65 CALM      29.95

NORTHEASTERN MEXICO

CITY           SKY/WX    TMP DP  RH WIND       PRES   REMARKS
CHIHUAHUA      SUNNY     66  50  55 CALM      30.33
MATAMOROS      SUNNY     77  70  78 CALM      30.19
MONCLOVA         N/A    N/A N/A N/A MISG        N/A
MONTERREY      SUNNY     73  64  73 NW3       30.20S
NUEVO LAREDO   SUNNY     77  63  61 CALM      30.18
PIEDRAS NEGRAS SUNNY     79  63  57 SE6       30.20R
REYNOSA        SUNNY     75  63  64 E2        30.17
SALTILLO       SUNNY     68  52  56 CALM      30.35S
TORREON        SUNNY     70  54  56 CALM      30.30R
CD. VICTORIA   SUNNY     75  66  73 E2        30.20

WESTERN MEXICO

CITY           SKY/WX    TMP DP  RH WIND       PRES   REMARKS
AGUASCALIENTES MOSUNNY   63  45  51 E8        30.44
COLIMA         SUNNY     81  64  57 N12       30.10
DEL BAJIO      MOSUNNY   66  48  52 CALM      30.43S
GUADALAJARA    SUNNY     68  52  56 NE6       30.34
MANZANILLO     MOSUNNY   90  77  66 CALM      29.90R HX 102
MAZATLAN       MOSUNNY   81  75  83 SE6       29.96R
P. VALLARTA    MOSUNNY   86  77  74 CALM      29.94R HX  97
URUAPAN        SUNNY     68  57  68 CALM      30.28
ZACATECAS      SUNNY     61  45  55 CALM      30.45R

CENTRAL MEXICO

CITY           SKY/WX    TMP DP  RH WIND       PRES   REMARKS
CUERNAVACA       N/A    N/A N/A N/A MISG        N/A
MEXICO CITY    MOSUNNY   61  46  59 NE9       30.46R
MORELIA        MOSUNNY   63  52  67 N3        30.38
POZA RICA      MOSUNNY   82  75  78 N5        30.20R
PUEBLA         MOSUNNY   61  43  51 N16       30.45R
QUERETARO      PTSUNNY   64  46  52 E17       30.43R
S. LUIS POTOSI MOSUNNY   66  43  42 E9        30.42R
TAMPICO        SUNNY     79  66  65 W7        30.17R
TOLUCA         MOSUNNY   57  45  62 N6        30.50R

SOUTHERN MEXICO

CITY           SKY/WX    TMP DP  RH WIND       PRES   REMARKS
ACAPULCO       MOSUNNY   84  77  79 CALM      29.94R HX  94
B. DE HUATULCO MOSUNNY   84  68  58 CALM      30.00
OAXACA         PTSUNNY   68  50  52 N14       30.33
P. ESCONDIDO   MOSUNNY   82  75  78 CALM      30.07R
VERACRUZ       MOSUNNY   81  68  65 N8        30.14R
ZIHUATANEJO    SUNNY     86  73  66 CALM      29.95R HX  93

YUCATAN PENINSULA

CITY           SKY/WX    TMP DP  RH WIND       PRES   REMARKS
CAMPECHE       MOSUNNY   81  68  65 N16       30.04R
CANCUN         PTSUNNY   82  66  57 N10       29.98S
CHETUMAL       PTSUNNY   79  73  83 N9        30.00S
CD. DEL CARMEN CLOUDY    84  68  58 N14       30.06
COZUMEL        PTSUNNY   79  68  69 N12       29.98R
MERIDA         MOSUNNY   81  64  57 N12       30.05R
MINATITLAN     PTSUNNY   82  68  61 NW17      30.09
TAPACHULA      MOSUNNY   86  79  79 CALM      29.94R HX  99
TUX. GUTIERREZ MOSUNNY   79  66  65 E6        30.11R
VILLAHERMOSA   PTSUNNY   79  73  83 CALM      30.10S

CENTRAL AMERICA

CITY           SKY/WX    TMP DP  RH WIND       PRES   REMARKS
BELIZE CITY    MOSUNNY   81  72  74 N10         N/A
MANAGUA        MOSUNNY   88  75  66 NW5       29.83F HX  97

CARIBBEAN

CITY           SKY/WX    TMP DP  RH WIND       PRES   REMARKS
ARUBA          MOSUNNY   90  77  66 E17       29.83F HX 102
KINGSTON       MOSUNNY   86  77  74 SE8       29.89S HX  97
NASSAU         PTSUNNY   82  68  61 NE12      29.86F
SAN JUAN       PTSUNNY   84  75  74 E8        29.92F HX  92
SANTO DOMINGO  MOSUNNY   86  75  70 S12       29.89F HX  95
ST. CROIX      MOSUNNY   90  75  62 SE13      29.94F HX 100
ST. KITTS      MOSUNNY   88  79  74 E10       29.92F HX 102
ST. MAARTEN    MOSUNNY   86  75  70 SE10      29.92F HX  95
ST. THOMAS     MOSUNNY   86  73  66 SE12      29.92  HX  93

$$




USA.gov is the U.S. government's official web portal to all federal, state and local government web resources and services.